Regional Weather Roundup
Issued by NWS Raleigh/Durham, NC

Home | Current Version | Previous Version | Text Only | Print | Product List | Glossary On
Versions: 1 2 3 4 5 6 7 8 9 10 11 12 13 14 15 16 17 18 19 20 21 22 23 24 25 26 27 28 29 30 31 32 33 34 35 36 37 38 39 40 41 42 43 44 45 46 47 48 49 50
326
ASUS42 KRAH 030910
RWRRAH
NORTH CAROLINA WEATHER ROUNDUP
NATIONAL WEATHER SERVICE RALEIGH NC
500 AM EDT TUE MAY 03 2016

NOTE: "FAIR" INDICATES FEW OR NO CLOUDS BELOW 12,000 FEET WITH NO
SIGNIFICANT WEATHER AND/OR OBSTRUCTIONS TO VISIBILITY.

NCZ001-053-055-056-065-067-031000-
WESTERN NORTH CAROLINA

CITY           SKY/WX    TMP DP  RH WIND       PRES   REMARKS
ASHEVILLE      CLOUDY    61  58  90 NW3       29.88S
JEFFERSON      DRIZZLE   54  54  99 CALM      29.90F
MORGANTON      DRIZZLE   60  60 100 CALM      29.91S
HICKORY        LGT RAIN  60  60 100 N5        29.85F
RUTHERFORDTON  LGT RAIN  62  62 100 CALM      29.85F
MOUNT AIRY     CLOUDY    60  58  94 CALM      29.89F
BOONE          LGT RAIN  56  56 100 W5        29.91S
$$

NCZ021-022-025-041-071-084-088-031000-
CENTRAL NORTH CAROLINA

CITY           SKY/WX    TMP DP  RH WIND       PRES   REMARKS
CHARLOTTE      LGT RAIN  64  62  93 SW8       29.86S
GREENSBORO     RAIN      63  63 100 SW3       29.84F FOG
WINSTON-SALEM  LGT RAIN  61  60  97 CALM      29.86F
RALEIGH-DURHAM LGT RAIN  65  63  93 CALM      29.86F
FORT BRAGG     RAIN      68  66  94 SW6       29.86S
FAYETTEVILLE   TSTM      68  64  87 SW9       29.86F FOG
BURLINGTON     LGT RAIN  63  62  97 CALM      29.85F
LAURINBURG     RAIN      65  64  97 W6        29.88S FOG
$$

NCZ011-015-027-028-043-044-047-080-103-031000-
NORTHEASTERN NORTH CAROLINA

CITY           SKY/WX    TMP DP  RH WIND       PRES   REMARKS
ROCKY MT-WILSO CLOUDY    68  66  93 E3        29.84F
GREENVILLE     CLOUDY    68  68 100 CALM      29.89S
WASHINGTON     DRIZZLE   69  68  95 SW6       29.86S
ELIZABETH CITY CLOUDY    69  67  93 W5        29.86R
MANTEO         NOT AVBL
CAPE HATTERAS  CLOUDY    71  69  93 SW10G18   29.88S
$$

NCZ078-087-090-091-093-098-101-031000-
SOUTHEASTERN NORTH CAROLINA

CITY           SKY/WX    TMP DP  RH WIND       PRES   REMARKS
LUMBERTON      TSTM      65  63  93 SW3       29.89R FOG
GOLDSBORO      TSTM      70  70 100 W13       29.84F
KINSTON        DRIZZLE   71  69  95 S8        29.86F
KENANSVILLE    CLOUDY    70  69  97 CALM      29.87F
NEW BERN       LGT RAIN  72  68  87 SW8       29.88R
CHERRY POINT   CLOUDY    73  68  84 SW14G21   29.88S
BEAUFORT       CLOUDY    71  69  93 SW14      29.88S
JACKSONVILLE   CLOUDY    72  66  81 S13       29.86S
WILMINGTON     CLOUDY    73  65  75 S9        29.87F
$$





USA.gov is the U.S. government's official web portal to all federal, state and local government web resources and services.